Time,TemperatureF,DewpointF,PressureIn,WindDirection,WindDirectionDegrees,WindSpeedMPH,WindSpeedGustMPH,Humidity,HourlyPrecipIn,Conditions,Clouds,dailyrainin,SoftwareType,DateUTC
2013-04-23 00:01:00,41.3,34.3,30.55,East,84,2.0,3.0,76,0.00,,,0.00,LWC V2.10 B1702,2013-04-23 04:01:00,
2013-04-23 00:06:00,41.4,34.4,30.55,ENE,71,2.0,3.0,76,0.00,,,0.00,LWC V2.10 B1702,2013-04-23 04:06:00,
2013-04-23 00:11:00,41.5,34.5,30.55,East,88,3.0,4.0,76,0.00,,,0.00,LWC V2.10 B1702,2013-04-23 04:11:00,
2013-04-23 00:16:00,41.5,34.5,30.54,East,79,2.0,4.0,76,0.00,,,0.00,LWC V2.10 B1702,2013-04-23 04:16:00,
2013-04-23 00:21:00,41.5,34.8,30.54,SE,136,2.0,3.0,77,0.00,,,0.00,LWC V2.10 B1702,2013-04-23 04:21:00,
2013-04-23 00:26:00,41.6,34.9,30.54,ENE,63,1.0,5.0,77,0.00,,,0.00,LWC V2.10 B1702,2013-04-23 04:26:00,
2013-04-23 00:31:00,41.6,34.9,30.53,ENE,78,3.0,5.0,77,0.00,,,0.00,LWC V2.10 B1702,2013-04-23 04:31:00,
2013-04-23 00:36:00,41.7,35.0,30.54,ESE,117,1.0,2.0,77,0.00,,,0.00,LWC V2.10 B1702,2013-04-23 04:36:00,
2013-04-23 00:41:00,41.7,35.0,30.53,ENE,66,1.0,3.0,77,0.00,,,0.00,LWC V2.10 B1702,2013-04-23 04:41:00,
2013-04-23 00:46:00,41.7,35.0,30.52,ENE,76,3.0,5.0,77,0.00,,,0.00,LWC V2.10 B1702,2013-04-23 04:46:00,
2013-04-23 00:51:00,41.7,35.4,30.53,ESE,119,0.0,2.0,78,0.00,,,0.00,LWC V2.10 B1702,2013-04-23 04:51:00,
2013-04-23 00:56:00,41.8,35.5,30.53,ENE,68,2.0,2.0,78,0.00,,,0.00,LWC V2.10 B1702,2013-04-23 04:56:00,
2013-04-23 01:01:00,41.8,35.5,30.52,East,92,2.0,3.0,78,0.00,,,0.00,LWC V2.10 B1702,2013-04-23 05:01:00,
2013-04-23 01:06:00,41.8,35.5,30.52,ENE,78,2.0,7.0,78,0.00,,,0.00,LWC V2.10 B1702,2013-04-23 05:06:00,
2013-04-23 01:11:00,41.9,35.9,30.52,ENE,68,1.0,3.0,79,0.00,,,0.00,LWC V2.10 B1702,2013-04-23 05:11:00,
2013-04-23 01:16:00,42.0,36.0,30.52,ENE,77,0.0,1.0,79,0.00,,,0.00,LWC V2.10 B1702,2013-04-23 05:16:00,
2013-04-23 01:21:00,42.0,36.0,30.51,East,80,1.0,2.0,79,0.00,,,0.00,LWC V2.10 B1702,2013-04-23 05:21:00,
2013-04-23 01:26:00,42.1,36.1,30.51,ESE,103,0.0,3.0,79,0.00,,,0.00,LWC V2.10 B1702,2013-04-23 05:26:00,
2013-04-23 01:31:00,42.1,36.1,30.51,East,82,0.0,2.0,79,0.00,,,0.00,LWC V2.10 B1702,2013-04-23 05:31:00,
2013-04-23 01:36:00,42.2,36.2,30.51,East,83,1.0,2.0,79,0.00,,,0.00,LWC V2.10 B1702,2013-04-23 05:36:00,
2013-04-23 01:41:00,42.2,36.2,30.50,ESE,111,2.0,2.0,79,0.00,,,0.00,LWC V2.10 B1702,2013-04-23 05:41:00,
2013-04-23 01:46:00,42.2,36.5,30.50,East,90,3.0,3.0,80,0.00,,,0.00,LWC V2.10 B1702,2013-04-23 05:46:00,
2013-04-23 01:51:00,42.3,36.6,30.50,ENE,78,3.0,3.0,80,0.00,,,0.00,LWC V2.10 B1702,2013-04-23 05:51:00,
2013-04-23 01:56:00,42.3,36.6,30.50,ESE,105,1.0,3.0,80,0.00,,,0.00,LWC V2.10 B1702,2013-04-23 05:56:00,
2013-04-23 02:01:00,42.3,36.6,30.49,ENE,74,0.0,3.0,80,0.00,,,0.00,LWC V2.10 B1702,2013-04-23 06:01:00,
2013-04-23 02:06:00,42.4,36.7,30.49,ENE,71,3.0,3.0,80,0.00,,,0.00,LWC V2.10 B1702,2013-04-23 06:06:00,
2013-04-23 02:11:00,42.4,36.7,30.49,East,83,1.0,2.0,80,0.00,,,0.00,LWC V2.10 B1702,2013-04-23 06:11:00,
2013-04-23 02:16:00,42.4,36.7,30.48,East,83,2.0,3.0,80,0.00,,,0.00,LWC V2.10 B1702,2013-04-23 06:16:00,
2013-04-23 02:21:00,42.5,36.8,30.48,East,101,0.0,3.0,80,0.00,,,0.00,LWC V2.10 B1702,2013-04-23 06:21:00,
2013-04-23 02:26:00,42.5,36.8,30.48,ESE,104,3.0,3.0,80,0.00,,,0.00,LWC V2.10 B1702,2013-04-23 06:26:00,
2013-04-23 02:31:00,42.5,36.8,30.48,East,86,2.0,7.0,80,0.00,,,0.00,LWC V2.10 B1702,2013-04-23 06:31:00,
2013-04-23 02:36:00,42.6,36.9,30.48,SE,126,3.0,7.0,80,0.00,,,0.00,LWC V2.10 B1702,2013-04-23 06:36:00,
2013-04-23 02:41:00,42.6,37.2,30.48,ESE,108,3.0,5.0,81,0.00,,,0.00,LWC V2.10 B1702,2013-04-23 06:41:00,
2013-04-23 02:46:00,42.6,37.2,30.48,ENE,76,3.0,5.0,81,0.00,,,0.00,LWC V2.10 B1702,2013-04-23 06:46:00,
2013-04-23 02:51:00,42.6,37.5,30.47,ESE,119,4.0,8.0,82,0.00,,,0.00,LWC V2.10 B1702,2013-04-23 06:51:00,
2013-04-23 02:56:00,42.5,37.4,30.47,ENE,62,2.0,7.0,82,0.00,,,0.00,LWC V2.10 B1702,2013-04-23 06:56:00,
2013-04-23 03:01:00,42.5,37.7,30.47,ENE,66,5.0,5.0,83,0.00,,,0.00,LWC V2.10 B1702,2013-04-23 07:01:00,
2013-04-23 03:02:00,42.5,37.7,30.47,East,81,1.0,8.0,83,0.00,,,0.00,LWC V2.10 B1702,2013-04-23 07:02:00,
2013-04-23 03:07:00,42.5,37.7,30.46,SE,131,2.0,3.0,83,0.00,,,0.00,LWC V2.10 B1702,2013-04-23 07:07:00,
2013-04-23 03:12:00,42.5,38.0,30.46,East,90,5.0,6.0,84,0.00,,,0.00,LWC V2.10 B1702,2013-04-23 07:12:00,
2013-04-23 03:17:00,42.5,38.3,30.46,ENE,70,3.0,10.0,85,0.00,,,0.00,LWC V2.10 B1702,2013-04-23 07:17:00,
2013-04-23 03:22:00,42.4,38.5,30.45,East,100,2.0,5.0,86,0.00,,,0.00,LWC V2.10 B1702,2013-04-23 07:22:00,
2013-04-23 03:27:00,42.4,38.5,30.45,East,90,1.0,4.0,86,0.00,,,0.00,LWC V2.10 B1702,2013-04-23 07:27:00,
2013-04-23 03:32:00,42.3,38.7,30.46,East,82,3.0,10.0,87,0.00,,,0.00,LWC V2.10 B1702,2013-04-23 07:32:00,
2013-04-23 03:37:00,42.3,38.7,30.46,ENE,78,3.0,3.0,87,0.00,,,0.00,LWC V2.10 B1702,2013-04-23 07:37:00,
2013-04-23 03:40:00,42.3,38.7,30.45,East,87,2.0,4.0,87,0.00,,,0.00,LWC V2.10 B1702,2013-04-23 07:40:00,
2013-04-23 03:45:00,42.3,39.0,30.45,ENE,74,3.0,3.0,88,0.00,,,0.00,LWC V2.10 B1702,2013-04-23 07:45:00,
2013-04-23 03:50:00,42.2,38.9,30.45,East,94,0.0,3.0,88,0.00,,,0.00,LWC V2.10 B1702,2013-04-23 07:50:00,
2013-04-23 03:55:00,42.2,38.9,30.45,ESE,121,2.0,3.0,88,0.00,,,0.00,LWC V2.10 B1702,2013-04-23 07:55:00,
2013-04-23 04:00:00,42.2,39.2,30.45,ESE,115,2.0,3.0,89,0.00,,,0.00,LWC V2.10 B1702,2013-04-23 08:00:00,
2013-04-23 04:05:00,42.2,39.2,30.45,East,85,0.0,2.0,89,0.00,,,0.00,LWC V2.10 B1702,2013-04-23 08:05:00,
2013-04-23 04:10:00,42.2,39.2,30.45,East,89,0.0,2.0,89,0.00,,,0.00,LWC V2.10 B1702,2013-04-23 08:10:00,
2013-04-23 04:15:00,42.2,39.2,30.45,ENE,65,1.0,3.0,89,0.00,,,0.00,LWC V2.10 B1702,2013-04-23 08:15:00,
2013-04-23 04:20:00,42.2,39.5,30.45,East,85,1.0,5.0,90,0.00,,,0.00,LWC V2.10 B1702,2013-04-23 08:20:00,
2013-04-23 04:25:00,42.2,39.5,30.45,East,82,0.0,2.0,90,0.00,,,0.00,LWC V2.10 B1702,2013-04-23 08:25:00,
2013-04-23 04:30:00,42.2,39.5,30.45,ENE,67,3.0,5.0,90,0.00,,,0.00,LWC V2.10 B1702,2013-04-23 08:30:00,
2013-04-23 04:35:00,42.2,39.5,30.45,East,90,1.0,3.0,90,0.00,,,0.00,LWC V2.10 B1702,2013-04-23 08:35:00,
2013-04-23 04:40:00,42.2,39.5,30.44,East,79,0.0,10.0,90,0.00,,,0.00,LWC V2.10 B1702,2013-04-23 08:40:00,
2013-04-23 04:45:00,42.3,39.6,30.44,East,90,0.0,2.0,90,0.00,,,0.00,LWC V2.10 B1702,2013-04-23 08:45:00,
2013-04-23 04:50:00,42.3,39.6,30.44,East,92,2.0,3.0,90,0.00,,,0.00,LWC V2.10 B1702,2013-04-23 08:50:00,
2013-04-23 04:55:00,42.3,39.6,30.44,East,97,0.0,2.0,90,0.00,,,0.00,LWC V2.10 B1702,2013-04-23 08:55:00,
2013-04-23 05:00:00,42.3,39.6,30.44,East,80,6.0,6.0,90,0.00,,,0.00,LWC V2.10 B1702,2013-04-23 09:00:00,
2013-04-23 05:05:00,42.3,39.6,30.44,East,84,1.0,5.0,90,0.00,,,0.00,LWC V2.10 B1702,2013-04-23 09:05:00,
2013-04-23 05:10:00,42.3,39.6,30.44,East,88,3.0,7.0,90,0.00,,,0.00,LWC V2.10 B1702,2013-04-23 09:10:00,
2013-04-23 05:15:00,42.3,39.9,30.44,ENE,67,3.0,5.0,91,0.00,,,0.00,LWC V2.10 B1702,2013-04-23 09:15:00,
2013-04-23 05:20:00,42.3,39.9,30.44,East,99,1.0,4.0,91,0.00,,,0.00,LWC V2.10 B1702,2013-04-23 09:20:00,
2013-04-23 05:25:00,42.4,40.0,30.44,ESE,102,1.0,6.0,91,0.00,,,0.00,LWC V2.10 B1702,2013-04-23 09:25:00,
2013-04-23 05:30:00,42.4,40.0,30.44,ENE,76,2.0,7.0,91,0.00,,,0.00,LWC V2.10 B1702,2013-04-23 09:30:00,
2013-04-23 05:35:00,42.4,40.0,30.44,East,100,0.0,2.0,91,0.00,,,0.00,LWC V2.10 B1702,2013-04-23 09:35:00,
2013-04-23 05:40:00,42.4,40.0,30.44,NE,42,0.0,4.0,91,0.00,,,0.00,LWC V2.10 B1702,2013-04-23 09:40:00,
2013-04-23 05:45:00,42.5,40.1,30.43,ENE,63,1.0,2.0,91,0.00,,,0.00,LWC V2.10 B1702,2013-04-23 09:45:00,
2013-04-23 05:50:00,42.5,40.1,30.43,ENE,73,2.0,2.0,91,0.00,,,0.00,LWC V2.10 B1702,2013-04-23 09:50:00,
2013-04-23 05:55:00,42.5,40.1,30.43,ENE,74,0.0,1.0,91,0.00,,,0.00,LWC V2.10 B1702,2013-04-23 09:55:00,
2013-04-23 06:00:00,42.6,40.2,30.43,ENE,57,1.0,3.0,91,0.00,,,0.00,LWC V2.10 B1702,2013-04-23 10:00:00,
2013-04-23 06:05:00,42.6,40.2,30.43,ENE,61,2.0,2.0,91,0.00,,,0.00,LWC V2.10 B1702,2013-04-23 10:05:00,
2013-04-23 06:10:00,42.6,40.2,30.43,ENE,71,0.0,1.0,91,0.00,,,0.01,LWC V2.10 B1702,2013-04-23 10:10:00,
2013-04-23 06:15:00,42.7,40.3,30.43,NE,38,0.0,2.0,91,0.00,,,0.01,LWC V2.10 B1702,2013-04-23 10:15:00,
2013-04-23 06:20:00,42.7,40.3,30.43,East,80,0.0,2.0,91,0.00,,,0.01,LWC V2.10 B1702,2013-04-23 10:20:00,
2013-04-23 06:25:00,42.8,40.4,30.42,ENE,78,0.0,2.0,91,0.00,,,0.01,LWC V2.10 B1702,2013-04-23 10:25:00,
2013-04-23 06:30:00,42.8,40.4,30.42,NNE,19,3.0,3.0,91,0.00,,,0.01,LWC V2.10 B1702,2013-04-23 10:30:00,
2013-04-23 06:35:00,42.9,40.5,30.42,ENE,72,0.0,3.0,91,0.00,,,0.01,LWC V2.10 B1702,2013-04-23 10:35:00,
2013-04-23 06:40:00,42.9,40.5,30.42,East,84,3.0,7.0,91,0.00,,,0.01,LWC V2.10 B1702,2013-04-23 10:40:00,
2013-04-23 06:45:00,43.0,40.6,30.42,East,80,6.0,6.0,91,0.00,,,0.01,LWC V2.10 B1702,2013-04-23 10:45:00,
2013-04-23 06:50:00,43.1,40.9,30.42,East,85,2.0,3.0,92,0.00,,,0.01,LWC V2.10 B1702,2013-04-23 10:50:00,
2013-04-23 06:55:00,43.1,40.9,30.41,NNE,31,0.0,2.0,92,0.00,,,0.01,LWC V2.10 B1702,2013-04-23 10:55:00,
2013-04-23 07:00:00,43.2,41.0,30.42,ENE,72,1.0,3.0,92,0.00,,,0.01,LWC V2.10 B1702,2013-04-23 11:00:00,
2013-04-23 07:05:00,43.3,41.1,30.41,East,86,2.0,6.0,92,0.00,,,0.01,LWC V2.10 B1702,2013-04-23 11:05:00,
2013-04-23 07:10:00,43.3,41.1,30.41,ENE,78,5.0,5.0,92,0.00,,,0.01,LWC V2.10 B1702,2013-04-23 11:10:00,
2013-04-23 07:15:00,43.4,41.2,30.41,NE,46,0.0,6.0,92,0.00,,,0.01,LWC V2.10 B1702,2013-04-23 11:15:00,
2013-04-23 07:20:00,43.5,41.3,30.41,ENE,71,1.0,3.0,92,0.00,,,0.01,LWC V2.10 B1702,2013-04-23 11:20:00,
2013-04-23 07:25:00,43.6,41.4,30.42,ENE,75,4.0,6.0,92,0.00,,,0.01,LWC V2.10 B1702,2013-04-23 11:25:00,
2013-04-23 07:30:00,43.6,41.4,30.42,East,80,1.0,2.0,92,0.00,,,0.01,LWC V2.10 B1702,2013-04-23 11:30:00,
2013-04-23 07:35:00,43.7,41.5,30.42,East,84,0.0,2.0,92,0.00,,,0.01,LWC V2.10 B1702,2013-04-23 11:35:00,
2013-04-23 07:40:00,43.7,41.5,30.42,ENE,72,2.0,2.0,92,0.00,,,0.01,LWC V2.10 B1702,2013-04-23 11:40:00,
2013-04-23 07:45:00,43.8,41.6,30.42,NE,51,0.0,0.0,92,0.00,,,0.01,LWC V2.10 B1702,2013-04-23 11:45:00,
2013-04-23 07:50:00,43.8,41.6,30.42,NE,44,0.0,3.0,92,0.00,,,0.01,LWC V2.10 B1702,2013-04-23 11:50:00,
2013-04-23 07:55:00,43.8,41.6,30.42,ENE,72,0.0,2.0,92,0.00,,,0.01,LWC V2.10 B1702,2013-04-23 11:55:00,
2013-04-23 08:00:00,43.9,41.7,30.42,East,82,3.0,5.0,92,0.00,,,0.01,LWC V2.10 B1702,2013-04-23 12:00:00,
2013-04-23 08:05:00,43.9,41.4,30.41,East,85,1.0,2.0,91,0.00,,,0.01,LWC V2.10 B1702,2013-04-23 12:05:00,
2013-04-23 08:10:00,44.0,41.5,30.41,East,101,0.0,2.0,91,0.00,,,0.01,LWC V2.10 B1702,2013-04-23 12:10:00,
2013-04-23 08:15:00,44.1,41.6,30.41,ENE,76,2.0,7.0,91,0.00,,,0.01,LWC V2.10 B1702,2013-04-23 12:15:00,
2013-04-23 08:20:00,44.1,41.6,30.40,NE,55,4.0,4.0,91,0.00,,,0.01,LWC V2.10 B1702,2013-04-23 12:20:00,
2013-04-23 08:25:00,44.2,41.7,30.40,SE,125,2.0,3.0,91,0.00,,,0.01,LWC V2.10 B1702,2013-04-23 12:25:00,
2013-04-23 08:30:00,44.2,41.7,30.40,East,91,1.0,5.0,91,0.00,,,0.01,LWC V2.10 B1702,2013-04-23 12:30:00,
2013-04-23 08:35:00,44.3,41.8,30.40,East,88,2.0,5.0,91,0.00,,,0.01,LWC V2.10 B1702,2013-04-23 12:35:00,
2013-04-23 08:40:00,44.4,42.2,30.39,ENE,58,1.0,2.0,92,0.00,,,0.01,LWC V2.10 B1702,2013-04-23 12:40:00,
2013-04-23 08:45:00,44.5,42.0,30.39,ENE,74,0.0,2.0,91,0.00,,,0.01,LWC V2.10 B1702,2013-04-23 12:45:00,
2013-04-23 08:51:00,44.6,42.1,30.39,NE,38,1.0,3.0,91,0.00,,,0.01,LWC V2.10 B1702,2013-04-23 12:51:00,
2013-04-23 08:56:00,44.7,42.2,30.40,ESE,103,0.0,3.0,91,0.00,,,0.01,LWC V2.10 B1702,2013-04-23 12:56:00,
2013-04-23 09:01:00,44.7,42.2,30.39,ENE,74,3.0,7.0,91,0.00,,,0.01,LWC V2.10 B1702,2013-04-23 13:01:00,
2013-04-23 09:06:00,44.7,42.2,30.39,East,92,3.0,7.0,91,0.00,,,0.01,LWC V2.10 B1702,2013-04-23 13:06:00,
2013-04-23 09:11:00,44.8,42.3,30.39,ENE,77,4.0,7.0,91,0.00,,,0.01,LWC V2.10 B1702,2013-04-23 13:11:00,
2013-04-23 09:16:00,44.8,42.3,30.39,SE,127,4.0,9.0,91,0.00,,,0.01,LWC V2.10 B1702,2013-04-23 13:16:00,
2013-04-23 09:21:00,44.9,42.4,30.39,South,171,3.0,7.0,91,0.00,,,0.01,LWC V2.10 B1702,2013-04-23 13:21:00,
2013-04-23 09:26:00,45.0,42.5,30.38,East,86,1.0,3.0,91,0.00,,,0.01,LWC V2.10 B1702,2013-04-23 13:26:00,
2013-04-23 09:31:00,45.0,42.5,30.39,ENE,61,1.0,5.0,91,0.00,,,0.01,LWC V2.10 B1702,2013-04-23 13:31:00,
2013-04-23 09:36:00,45.1,42.6,30.38,ENE,78,3.0,3.0,91,0.00,,,0.01,LWC V2.10 B1702,2013-04-23 13:36:00,
2013-04-23 09:41:00,45.2,42.7,30.39,East,99,0.0,3.0,91,0.00,,,0.01,LWC V2.10 B1702,2013-04-23 13:41:00,
2013-04-23 09:46:00,45.2,42.7,30.38,ESE,123,2.0,4.0,91,0.00,,,0.01,LWC V2.10 B1702,2013-04-23 13:46:00,
2013-04-23 09:51:00,45.3,42.8,30.38,East,100,3.0,6.0,91,0.00,,,0.01,LWC V2.10 B1702,2013-04-23 13:51:00,
2013-04-23 09:56:00,45.4,42.9,30.38,ENE,61,1.0,4.0,91,0.00,,,0.01,LWC V2.10 B1702,2013-04-23 13:56:00,
2013-04-23 10:01:00,45.5,43.0,30.38,ESE,103,0.0,3.0,91,0.00,,,0.01,LWC V2.10 B1702,2013-04-23 14:01:00,
2013-04-23 10:06:00,45.6,43.1,30.38,ENE,71,2.0,6.0,91,0.00,,,0.01,LWC V2.10 B1702,2013-04-23 14:06:00,
2013-04-23 10:11:00,45.7,43.2,30.38,East,92,3.0,7.0,91,0.00,,,0.01,LWC V2.10 B1702,2013-04-23 14:11:00,
2013-04-23 10:16:00,45.8,43.3,30.38,East,89,1.0,5.0,91,0.00,,,0.01,LWC V2.10 B1702,2013-04-23 14:16:00,
2013-04-23 10:21:00,46.0,43.5,30.38,NE,37,0.0,5.0,91,0.00,,,0.01,LWC V2.10 B1702,2013-04-23 14:21:00,
2013-04-23 10:26:00,46.1,43.6,30.37,NNE,30,1.0,6.0,91,0.00,,,0.01,LWC V2.10 B1702,2013-04-23 14:26:00,
2013-04-23 10:31:00,46.1,43.3,30.37,ENE,77,4.0,7.0,90,0.00,,,0.01,LWC V2.10 B1702,2013-04-23 14:31:00,
2013-04-23 10:36:00,46.2,43.4,30.38,ENE,67,2.0,9.0,90,0.00,,,0.01,LWC V2.10 B1702,2013-04-23 14:36:00,
2013-04-23 10:41:00,46.3,43.5,30.37,ENE,69,2.0,6.0,90,0.00,,,0.01,LWC V2.10 B1702,2013-04-23 14:41:00,
2013-04-23 10:46:00,46.3,43.5,30.37,ENE,72,3.0,5.0,90,0.00,,,0.01,LWC V2.10 B1702,2013-04-23 14:46:00,
2013-04-23 10:51:00,46.3,43.5,30.37,ENE,67,0.0,2.0,90,0.00,,,0.01,LWC V2.10 B1702,2013-04-23 14:51:00,
2013-04-23 10:56:00,46.4,43.6,30.37,SE,124,2.0,5.0,90,0.00,,,0.01,LWC V2.10 B1702,2013-04-23 14:56:00,
2013-04-23 11:01:00,46.4,43.6,30.37,ENE,66,1.0,4.0,90,0.00,,,0.01,LWC V2.10 B1702,2013-04-23 15:01:00,
2013-04-23 11:06:00,46.5,43.7,30.37,East,98,7.0,7.0,90,0.00,,,0.01,LWC V2.10 B1702,2013-04-23 15:06:00,
2013-04-23 11:11:00,46.4,43.6,30.37,NE,53,6.0,7.0,90,0.00,,,0.01,LWC V2.10 B1702,2013-04-23 15:11:00,
2013-04-23 11:16:00,46.4,43.6,30.37,NE,49,2.0,7.0,90,0.00,,,0.01,LWC V2.10 B1702,2013-04-23 15:16:00,
2013-04-23 11:21:00,46.4,43.6,30.36,NE,51,1.0,4.0,90,0.00,,,0.01,LWC V2.10 B1702,2013-04-23 15:21:00,
2013-04-23 11:26:00,46.4,43.6,30.36,East,87,1.0,3.0,90,0.00,,,0.02,LWC V2.10 B1702,2013-04-23 15:26:00,
2013-04-23 11:31:00,46.4,43.6,30.36,ENE,76,4.0,5.0,90,0.00,,,0.02,LWC V2.10 B1702,2013-04-23 15:31:00,
2013-04-23 11:36:00,46.3,43.5,30.36,ENE,71,2.0,7.0,90,0.00,,,0.02,LWC V2.10 B1702,2013-04-23 15:36:00,
2013-04-23 11:41:00,46.3,43.5,30.35,ENE,73,2.0,5.0,90,0.00,,,0.02,LWC V2.10 B1702,2013-04-23 15:41:00,
2013-04-23 11:46:00,46.3,43.5,30.35,East,82,1.0,7.0,90,0.00,,,0.02,LWC V2.10 B1702,2013-04-23 15:46:00,
2013-04-23 11:51:00,46.3,43.5,30.35,East,101,2.0,2.0,90,0.00,,,0.02,LWC V2.10 B1702,2013-04-23 15:51:00,
2013-04-23 11:56:00,46.2,43.4,30.34,East,83,1.0,4.0,90,0.00,,,0.02,LWC V2.10 B1702,2013-04-23 15:56:00,
2013-04-23 12:01:00,46.1,43.3,30.34,East,101,2.0,4.0,90,0.00,,,0.02,LWC V2.10 B1702,2013-04-23 16:01:00,
2013-04-23 12:06:00,46.1,43.6,30.33,ENE,74,2.0,5.0,91,0.00,,,0.02,LWC V2.10 B1702,2013-04-23 16:06:00,
2013-04-23 12:11:00,46.1,43.6,30.33,ENE,77,5.0,8.0,91,0.00,,,0.02,LWC V2.10 B1702,2013-04-23 16:11:00,
2013-04-23 12:16:00,46.1,43.6,30.33,ESE,106,0.0,6.0,91,0.00,,,0.02,LWC V2.10 B1702,2013-04-23 16:16:00,
2013-04-23 12:21:00,46.1,43.6,30.33,East,98,2.0,5.0,91,0.00,,,0.03,LWC V2.10 B1702,2013-04-23 16:21:00,
2013-04-23 12:26:00,46.0,43.5,30.32,East,82,0.0,3.0,91,0.00,,,0.03,LWC V2.10 B1702,2013-04-23 16:26:00,
2013-04-23 12:31:00,46.1,43.6,30.32,ENE,74,4.0,7.0,91,0.00,,,0.03,LWC V2.10 B1702,2013-04-23 16:31:00,
2013-04-23 12:36:00,46.1,43.6,30.32,East,88,0.0,3.0,91,0.00,,,0.03,LWC V2.10 B1702,2013-04-23 16:36:00,
2013-04-23 12:41:00,46.1,43.6,30.32,ENE,78,4.0,8.0,91,0.00,,,0.03,LWC V2.10 B1702,2013-04-23 16:41:00,
2013-04-23 12:46:00,46.1,43.6,30.31,NE,55,3.0,4.0,91,0.00,,,0.03,LWC V2.10 B1702,2013-04-23 16:46:00,
2013-04-23 12:51:00,46.0,43.5,30.31,East,88,1.0,11.0,91,0.00,,,0.03,LWC V2.10 B1702,2013-04-23 16:51:00,
2013-04-23 12:56:00,46.0,43.5,30.31,East,89,2.0,5.0,91,0.00,,,0.03,LWC V2.10 B1702,2013-04-23 16:56:00,
2013-04-23 13:01:00,46.1,43.6,30.31,East,86,5.0,7.0,91,0.00,,,0.03,LWC V2.10 B1702,2013-04-23 17:01:00,
2013-04-23 13:06:00,46.1,43.6,30.30,ENE,67,2.0,8.0,91,0.00,,,0.03,LWC V2.10 B1702,2013-04-23 17:06:00,
2013-04-23 13:11:00,46.1,43.6,30.30,East,87,0.0,8.0,91,0.00,,,0.03,LWC V2.10 B1702,2013-04-23 17:11:00,
2013-04-23 13:16:00,46.1,43.6,30.30,ENE,65,3.0,10.0,91,0.00,,,0.04,LWC V2.10 B1702,2013-04-23 17:16:00,
2013-04-23 13:21:00,46.1,43.6,30.30,ENE,57,0.0,8.0,91,0.00,,,0.04,LWC V2.10 B1702,2013-04-23 17:21:00,
2013-04-23 13:26:00,46.2,43.7,30.29,ENE,77,5.0,5.0,91,0.00,,,0.04,LWC V2.10 B1702,2013-04-23 17:26:00,
2013-04-23 13:31:00,46.3,43.8,30.29,ENE,66,3.0,4.0,91,0.00,,,0.04,LWC V2.10 B1702,2013-04-23 17:31:00,
2013-04-23 13:36:00,46.2,43.7,30.29,East,87,2.0,3.0,91,0.00,,,0.05,LWC V2.10 B1702,2013-04-23 17:36:00,
2013-04-23 13:41:00,46.3,43.8,30.28,NNW,332,0.0,2.0,91,0.00,,,0.05,LWC V2.10 B1702,2013-04-23 17:41:00,
2013-04-23 13:46:00,46.3,43.8,30.28,East,95,2.0,9.0,91,0.00,,,0.05,LWC V2.10 B1702,2013-04-23 17:46:00,
2013-04-23 13:51:00,46.3,43.8,30.28,NE,56,5.0,7.0,91,0.00,,,0.05,LWC V2.10 B1702,2013-04-23 17:51:00,
2013-04-23 13:56:00,46.3,43.8,30.28,ENE,78,3.0,8.0,91,0.00,,,0.05,LWC V2.10 B1702,2013-04-23 17:56:00,
2013-04-23 14:01:00,46.2,43.7,30.27,ENE,59,5.0,8.0,91,0.00,,,0.05,LWC V2.10 B1702,2013-04-23 18:01:00,
2013-04-23 14:06:00,46.1,43.6,30.27,ENE,78,2.0,7.0,91,0.00,,,0.06,LWC V2.10 B1702,2013-04-23 18:06:00,
2013-04-23 14:11:00,46.1,43.6,30.27,ENE,71,2.0,8.0,91,0.00,,,0.06,LWC V2.10 B1702,2013-04-23 18:11:00,
2013-04-23 14:16:00,46.0,43.5,30.27,NE,51,0.0,9.0,91,0.00,,,0.06,LWC V2.10 B1702,2013-04-23 18:16:00,
2013-04-23 14:21:00,45.9,43.4,30.26,ENE,59,4.0,5.0,91,0.00,,,0.06,LWC V2.10 B1702,2013-04-23 18:21:00,
2013-04-23 14:26:00,46.0,43.5,30.26,NE,40,3.0,4.0,91,0.00,,,0.06,LWC V2.10 B1702,2013-04-23 18:26:00,
2013-04-23 14:31:00,46.0,43.5,30.26,NNE,22,2.0,5.0,91,0.00,,,0.07,LWC V2.10 B1702,2013-04-23 18:31:00,
2013-04-23 14:36:00,46.0,43.8,30.26,NNE,19,3.0,7.0,92,0.00,,,0.07,LWC V2.10 B1702,2013-04-23 18:36:00,
2013-04-23 14:41:00,45.9,43.4,30.25,ESE,113,3.0,6.0,91,0.05,,,0.08,LWC V2.10 B1702,2013-04-23 18:41:00,
2013-04-23 14:46:00,45.9,43.4,30.25,ENE,69,8.0,11.0,91,0.05,,,0.08,LWC V2.10 B1702,2013-04-23 18:46:00,
2013-04-23 14:51:00,45.7,43.2,30.24,SE,138,5.0,10.0,91,0.05,,,0.08,LWC V2.10 B1702,2013-04-23 18:51:00,
2013-04-23 14:56:00,45.7,43.5,30.24,ENE,65,5.0,5.0,92,0.04,,,0.09,LWC V2.10 B1702,2013-04-23 18:56:00,
2013-04-23 15:01:00,45.8,43.6,30.23,ENE,63,2.0,4.0,92,0.04,,,0.09,LWC V2.10 B1702,2013-04-23 19:01:00,
2013-04-23 15:06:00,45.8,43.6,30.23,East,89,3.0,4.0,92,0.04,,,0.09,LWC V2.10 B1702,2013-04-23 19:06:00,
2013-04-23 15:11:00,45.8,43.6,30.23,East,87,2.0,7.0,92,0.04,,,0.10,LWC V2.10 B1702,2013-04-23 19:11:00,
2013-04-23 15:16:00,45.8,43.6,30.23,ENE,67,4.0,7.0,92,0.04,,,0.10,LWC V2.10 B1702,2013-04-23 19:16:00,
2013-04-23 15:21:00,45.8,43.6,30.23,NNE,31,4.0,10.0,92,0.04,,,0.10,LWC V2.10 B1702,2013-04-23 19:21:00,
2013-04-23 15:26:00,45.7,43.5,30.22,ESE,123,3.0,5.0,92,0.04,,,0.11,LWC V2.10 B1702,2013-04-23 19:26:00,
2013-04-23 15:31:00,45.7,43.5,30.22,ENE,63,0.0,7.0,92,0.04,,,0.11,LWC V2.10 B1702,2013-04-23 19:31:00,
2013-04-23 15:36:00,45.8,43.6,30.22,NNE,29,0.0,4.0,92,0.04,,,0.11,LWC V2.10 B1702,2013-04-23 19:36:00,
2013-04-23 15:41:00,45.9,43.7,30.22,ENE,61,7.0,14.0,92,0.04,,,0.11,LWC V2.10 B1702,2013-04-23 19:41:00,
2013-04-23 15:46:00,45.8,43.6,30.21,ENE,76,8.0,9.0,92,0.00,,,0.11,LWC V2.10 B1702,2013-04-23 19:46:00,
2013-04-23 15:51:00,45.7,43.5,30.21,NE,47,3.0,5.0,92,0.00,,,0.12,LWC V2.10 B1702,2013-04-23 19:51:00,
2013-04-23 15:56:00,45.6,43.4,30.21,East,80,5.0,11.0,92,0.00,,,0.12,LWC V2.10 B1702,2013-04-23 19:56:00,
2013-04-23 16:01:00,45.6,43.4,30.20,NE,53,3.0,8.0,92,0.00,,,0.12,LWC V2.10 B1702,2013-04-23 20:01:00,
2013-04-23 16:06:00,45.5,43.3,30.20,ENE,63,3.0,6.0,92,0.00,,,0.13,LWC V2.10 B1702,2013-04-23 20:06:00,
2013-04-23 16:11:00,45.5,43.3,30.20,NNE,18,5.0,7.0,92,0.00,,,0.13,LWC V2.10 B1702,2013-04-23 20:11:00,
2013-04-23 16:16:00,45.5,43.3,30.19,East,86,3.0,6.0,92,0.00,,,0.13,LWC V2.10 B1702,2013-04-23 20:16:00,
2013-04-23 16:21:00,45.5,43.3,30.19,ENE,75,0.0,8.0,92,0.05,,,0.14,LWC V2.10 B1702,2013-04-23 20:21:00,
2013-04-23 16:26:00,45.5,43.3,30.19,ENE,61,3.0,9.0,92,0.08,,,0.15,LWC V2.10 B1702,2013-04-23 20:26:00,
2013-04-23 16:31:00,45.4,43.2,30.18,ENE,71,7.0,8.0,92,0.08,,,0.15,LWC V2.10 B1702,2013-04-23 20:31:00,
2013-04-23 16:36:00,45.4,43.2,30.18,ENE,64,2.0,9.0,92,0.07,,,0.16,LWC V2.10 B1702,2013-04-23 20:36:00,
2013-04-23 16:41:00,45.4,43.2,30.18,ENE,76,3.0,5.0,92,0.07,,,0.16,LWC V2.10 B1702,2013-04-23 20:41:00,
2013-04-23 16:46:00,45.3,43.1,30.18,ESE,123,3.0,7.0,92,0.07,,,0.17,LWC V2.10 B1702,2013-04-23 20:46:00,
2013-04-23 16:51:00,45.3,43.1,30.18,ENE,78,1.0,8.0,92,0.07,,,0.17,LWC V2.10 B1702,2013-04-23 20:51:00,
2013-04-23 16:56:00,45.3,43.1,30.18,East,99,3.0,7.0,92,0.05,,,0.18,LWC V2.10 B1702,2013-04-23 20:56:00,
2013-04-23 17:01:00,45.3,43.1,30.17,East,96,2.0,8.0,92,0.05,,,0.18,LWC V2.10 B1702,2013-04-23 21:01:00,
2013-04-23 17:06:00,45.3,43.1,30.17,NNE,32,1.0,10.0,92,0.05,,,0.18,LWC V2.10 B1702,2013-04-23 21:06:00,
2013-04-23 17:11:00,45.2,43.0,30.17,East,79,7.0,11.0,92,0.05,,,0.19,LWC V2.10 B1702,2013-04-23 21:11:00,
2013-04-23 17:16:00,45.2,43.0,30.17,East,93,5.0,8.0,92,0.05,,,0.19,LWC V2.10 B1702,2013-04-23 21:16:00,
2013-04-23 17:21:00,45.1,42.9,30.16,ENE,65,3.0,7.0,92,0.05,,,0.20,LWC V2.10 B1702,2013-04-23 21:21:00,
2013-04-23 17:26:00,45.1,42.9,30.16,NE,56,1.0,8.0,92,0.05,,,0.20,LWC V2.10 B1702,2013-04-23 21:26:00,
2013-04-23 17:31:00,45.1,42.9,30.16,ENE,63,2.0,11.0,92,0.05,,,0.21,LWC V2.10 B1702,2013-04-23 21:31:00,
2013-04-23 17:36:00,45.0,42.8,30.16,East,79,2.0,7.0,92,0.05,,,0.21,LWC V2.10 B1702,2013-04-23 21:36:00,
2013-04-23 17:41:00,44.9,42.7,30.16,NNE,14,4.0,10.0,92,0.06,,,0.22,LWC V2.10 B1702,2013-04-23 21:41:00,
2013-04-23 17:46:00,44.9,42.7,30.16,East,84,2.0,7.0,92,0.06,,,0.22,LWC V2.10 B1702,2013-04-23 21:46:00,
2013-04-23 17:51:00,44.9,42.7,30.16,ENE,77,5.0,10.0,92,0.07,,,0.23,LWC V2.10 B1702,2013-04-23 21:51:00,
2013-04-23 17:56:00,44.9,42.7,30.16,ENE,60,3.0,7.0,92,0.07,,,0.23,LWC V2.10 B1702,2013-04-23 21:56:00,
2013-04-23 18:01:00,44.8,42.6,30.16,NW,325,8.0,12.0,92,0.06,,,0.24,LWC V2.10 B1702,2013-04-23 22:01:00,
2013-04-23 18:06:00,44.8,42.6,30.16,North,10,5.0,9.0,92,0.06,,,0.24,LWC V2.10 B1702,2013-04-23 22:06:00,
2013-04-23 18:11:00,44.7,42.5,30.16,ENE,62,4.0,5.0,92,0.06,,,0.25,LWC V2.10 B1702,2013-04-23 22:11:00,
2013-04-23 18:16:00,44.7,42.5,30.15,ENE,78,3.0,11.0,92,0.06,,,0.25,LWC V2.10 B1702,2013-04-23 22:16:00,
2013-04-23 18:21:00,44.6,42.4,30.15,ENE,78,2.0,8.0,92,0.05,,,0.25,LWC V2.10 B1702,2013-04-23 22:21:00,
2013-04-23 18:26:00,44.6,42.4,30.15,ENE,59,4.0,10.0,92,0.04,,,0.26,LWC V2.10 B1702,2013-04-23 22:26:00,
2013-04-23 18:31:00,44.5,42.3,30.15,NE,48,1.0,5.0,92,0.04,,,0.26,LWC V2.10 B1702,2013-04-23 22:31:00,
2013-04-23 18:36:00,44.5,42.3,30.15,North,11,5.0,6.0,92,0.07,,,0.27,LWC V2.10 B1702,2013-04-23 22:36:00,
2013-04-23 18:41:00,44.5,42.3,30.15,ESE,119,3.0,10.0,92,0.06,,,0.27,LWC V2.10 B1702,2013-04-23 22:41:00,
2013-04-23 18:46:00,44.4,42.2,30.15,ENE,61,4.0,10.0,92,0.06,,,0.28,LWC V2.10 B1702,2013-04-23 22:46:00,
2013-04-23 18:51:00,44.4,42.2,30.15,NE,49,8.0,8.0,92,0.06,,,0.28,LWC V2.10 B1702,2013-04-23 22:51:00,
2013-04-23 18:56:00,44.3,42.1,30.15,NE,41,1.0,9.0,92,0.04,,,0.29,LWC V2.10 B1702,2013-04-23 22:56:00,
2013-04-23 19:01:00,44.3,42.1,30.14,NE,49,5.0,6.0,92,0.04,,,0.29,LWC V2.10 B1702,2013-04-23 23:01:00,
2013-04-23 19:06:00,44.3,42.4,30.14,ENE,77,2.0,4.0,93,0.04,,,0.29,LWC V2.10 B1702,2013-04-23 23:06:00,
2013-04-23 19:11:00,44.3,42.4,30.14,NE,54,4.0,10.0,93,0.04,,,0.29,LWC V2.10 B1702,2013-04-23 23:11:00,
2013-04-23 19:16:00,44.2,42.3,30.14,ENE,72,3.0,7.0,93,0.00,,,0.30,LWC V2.10 B1702,2013-04-23 23:16:00,
2013-04-23 19:21:00,44.2,42.3,30.13,ENE,57,2.0,8.0,93,0.00,,,0.30,LWC V2.10 B1702,2013-04-23 23:21:00,
2013-04-23 19:26:00,44.2,42.3,30.13,ESE,106,5.0,8.0,93,0.00,,,0.30,LWC V2.10 B1702,2013-04-23 23:26:00,
2013-04-23 19:31:00,44.1,42.2,30.13,NE,48,9.0,12.0,93,0.04,,,0.31,LWC V2.10 B1702,2013-04-23 23:31:00,
2013-04-23 19:36:00,44.1,42.2,30.12,North,5,1.0,9.0,93,0.04,,,0.31,LWC V2.10 B1702,2013-04-23 23:36:00,
2013-04-23 19:41:00,44.1,42.2,30.12,North,0,3.0,10.0,93,0.04,,,0.31,LWC V2.10 B1702,2013-04-23 23:41:00,
2013-04-23 19:46:00,44.1,41.9,30.11,East,92,3.0,9.0,92,0.00,,,0.31,LWC V2.10 B1702,2013-04-23 23:46:00,
2013-04-23 19:51:00,44.0,41.8,30.12,North,5,6.0,8.0,92,0.00,,,0.31,LWC V2.10 B1702,2013-04-23 23:51:00,
2013-04-23 19:56:00,44.0,42.1,30.12,NE,41,5.0,10.0,93,0.00,,,0.31,LWC V2.10 B1702,2013-04-23 23:56:00,
2013-04-23 20:01:00,44.1,42.2,30.11,NE,39,5.0,10.0,93,0.00,,,0.31,LWC V2.10 B1702,2013-04-24 00:01:00,
2013-04-23 20:06:00,44.0,42.1,30.11,ESE,118,9.0,9.0,93,0.00,,,0.31,LWC V2.10 B1702,2013-04-24 00:06:00,
2013-04-23 20:11:00,44.1,42.2,30.11,NE,35,6.0,8.0,93,0.00,,,0.32,LWC V2.10 B1702,2013-04-24 00:11:00,
2013-04-23 20:16:00,44.1,42.2,30.11,ENE,57,8.0,10.0,93,0.00,,,0.32,LWC V2.10 B1702,2013-04-24 00:16:00,
2013-04-23 20:21:00,44.1,42.2,30.10,ENE,71,11.0,11.0,93,0.00,,,0.32,LWC V2.10 B1702,2013-04-24 00:21:00,
2013-04-23 20:26:00,44.1,42.2,30.10,ENE,66,2.0,10.0,93,0.00,,,0.32,LWC V2.10 B1702,2013-04-24 00:26:00,
2013-04-23 20:31:00,44.2,42.3,30.10,ENE,57,3.0,7.0,93,0.00,,,0.32,LWC V2.10 B1702,2013-04-24 00:31:00,
2013-04-23 20:36:00,44.1,42.2,30.10,East,88,3.0,8.0,93,0.00,,,0.32,LWC V2.10 B1702,2013-04-24 00:36:00,
2013-04-23 20:41:00,44.1,42.2,30.10,NNE,20,6.0,9.0,93,0.00,,,0.32,LWC V2.10 B1702,2013-04-24 00:41:00,
2013-04-23 20:46:00,44.2,42.3,30.10,NE,37,1.0,8.0,93,0.00,,,0.32,LWC V2.10 B1702,2013-04-24 00:46:00,
2013-04-23 20:51:00,44.2,42.3,30.09,NE,54,1.0,8.0,93,0.00,,,0.32,LWC V2.10 B1702,2013-04-24 00:51:00,
2013-04-23 20:56:00,44.2,42.3,30.09,East,94,5.0,8.0,93,0.00,,,0.32,LWC V2.10 B1702,2013-04-24 00:56:00,
2013-04-23 21:01:00,44.2,42.3,30.09,East,79,7.0,7.0,93,0.00,,,0.32,LWC V2.10 B1702,2013-04-24 01:01:00,
2013-04-23 21:06:00,44.2,42.3,30.09,NNW,342,9.0,12.0,93,0.00,,,0.32,LWC V2.10 B1702,2013-04-24 01:06:00,
2013-04-23 21:11:00,44.2,42.3,30.09,NNE,22,3.0,13.0,93,0.00,,,0.32,LWC V2.10 B1702,2013-04-24 01:11:00,
2013-04-23 21:16:00,44.2,42.3,30.09,NE,47,0.0,12.0,93,0.00,,,0.33,LWC V2.10 B1702,2013-04-24 01:16:00,
2013-04-23 21:21:00,44.2,42.3,30.09,North,5,5.0,10.0,93,0.00,,,0.33,LWC V2.10 B1702,2013-04-24 01:21:00,
2013-04-23 21:26:00,44.2,42.3,30.09,East,99,2.0,12.0,93,0.00,,,0.33,LWC V2.10 B1702,2013-04-24 01:26:00,
2013-04-23 21:31:00,44.2,42.3,30.08,NE,46,10.0,16.0,93,0.00,,,0.33,LWC V2.10 B1702,2013-04-24 01:31:00,
2013-04-23 21:36:00,44.2,42.3,30.08,NE,36,9.0,16.0,93,0.00,,,0.33,LWC V2.10 B1702,2013-04-24 01:36:00,
2013-04-23 21:41:00,44.2,42.3,30.08,NNE,26,8.0,13.0,93,0.00,,,0.34,LWC V2.10 B1702,2013-04-24 01:41:00,
2013-04-23 21:46:00,44.2,42.3,30.07,ENE,59,7.0,9.0,93,0.00,,,0.34,LWC V2.10 B1702,2013-04-24 01:46:00,
2013-04-23 21:51:00,44.2,42.3,30.07,ENE,72,5.0,12.0,93,0.00,,,0.34,LWC V2.10 B1702,2013-04-24 01:51:00,
2013-04-23 21:56:00,44.2,42.3,30.07,ENE,57,7.0,15.0,93,0.00,,,0.34,LWC V2.10 B1702,2013-04-24 01:56:00,
2013-04-23 22:01:00,44.2,42.3,30.07,NNE,25,15.0,17.0,93,0.00,,,0.35,LWC V2.10 B1702,2013-04-24 02:01:00,
2013-04-23 22:06:00,44.2,42.3,30.06,NNE,13,12.0,12.0,93,0.00,,,0.35,LWC V2.10 B1702,2013-04-24 02:06:00,
2013-04-23 22:11:00,44.2,42.3,30.06,NNE,28,5.0,9.0,93,0.00,,,0.35,LWC V2.10 B1702,2013-04-24 02:11:00,
2013-04-23 22:16:00,44.2,42.3,30.06,NE,46,3.0,8.0,93,0.04,,,0.36,LWC V2.10 B1702,2013-04-24 02:16:00,
2013-04-23 22:21:00,44.2,42.3,30.05,NE,44,9.0,10.0,93,0.04,,,0.36,LWC V2.10 B1702,2013-04-24 02:21:00,
2013-04-23 22:26:00,44.2,42.3,30.05,NNE,30,10.0,10.0,93,0.06,,,0.37,LWC V2.10 B1702,2013-04-24 02:26:00,
2013-04-23 22:31:00,44.2,42.3,30.04,North,9,3.0,5.0,93,0.06,,,0.37,LWC V2.10 B1702,2013-04-24 02:31:00,
2013-04-23 22:36:00,44.2,42.3,30.04,East,85,0.0,12.0,93,0.05,,,0.38,LWC V2.10 B1702,2013-04-24 02:36:00,
2013-04-23 22:41:00,44.1,42.2,30.03,NNE,28,10.0,13.0,93,0.05,,,0.38,LWC V2.10 B1702,2013-04-24 02:41:00,
2013-04-23 22:46:00,44.1,42.2,30.03,NE,40,2.0,14.0,93,0.05,,,0.38,LWC V2.10 B1702,2013-04-24 02:46:00,
2013-04-23 22:51:00,44.1,42.2,30.03,NE,49,2.0,9.0,93,0.05,,,0.39,LWC V2.10 B1702,2013-04-24 02:51:00,
2013-04-23 22:56:00,44.1,42.2,30.02,ENE,61,10.0,16.0,93,0.06,,,0.39,LWC V2.10 B1702,2013-04-24 02:56:00,
2013-04-23 23:01:00,44.1,42.2,30.02,NE,41,2.0,13.0,93,0.06,,,0.40,LWC V2.10 B1702,2013-04-24 03:01:00,
2013-04-23 23:06:00,44.1,42.2,30.02,NNE,27,2.0,12.0,93,0.06,,,0.40,LWC V2.10 B1702,2013-04-24 03:06:00,
2013-04-23 23:11:00,44.1,42.2,30.02,NE,49,9.0,12.0,93,0.06,,,0.41,LWC V2.10 B1702,2013-04-24 03:11:00,
2013-04-23 23:16:00,44.1,42.2,30.01,North,0,1.0,15.0,93,0.07,,,0.42,LWC V2.10 B1702,2013-04-24 03:16:00,
2013-04-23 23:21:00,44.1,42.2,30.01,NE,44,4.0,13.0,93,0.07,,,0.42,LWC V2.10 B1702,2013-04-24 03:21:00,
2013-04-23 23:26:00,44.2,42.3,30.01,NE,36,6.0,8.0,93,0.10,,,0.43,LWC V2.10 B1702,2013-04-24 03:26:00,
2013-04-23 23:30:00,44.1,42.2,30.01,NE,37,10.0,10.0,93,0.10,,,0.44,LWC V2.10 B1702,2013-04-24 03:30:00,
2013-04-23 23:31:00,44.2,42.3,30.01,ENE,67,3.0,16.0,93,0.10,,,0.44,LWC V2.10 B1702,2013-04-24 03:31:00,
2013-04-23 23:36:00,44.2,42.3,30.00,NNW,336,5.0,5.0,93,0.10,,,0.45,LWC V2.10 B1702,2013-04-24 03:36:00,
2013-04-23 23:41:00,44.1,42.2,30.00,East,79,2.0,11.0,93,0.11,,,0.46,LWC V2.10 B1702,2013-04-24 03:41:00,
2013-04-23 23:46:00,44.1,42.2,30.00,NNE,31,12.0,14.0,93,0.10,,,0.47,LWC V2.10 B1702,2013-04-24 03:46:00,
2013-04-23 23:51:00,44.1,42.2,30.00,NW,321,0.0,13.0,93,0.11,,,0.48,LWC V2.10 B1702,2013-04-24 03:51:00,
2013-04-23 23:56:00,44.1,42.2,30.00,NE,48,4.0,7.0,93,0.11,,,0.48,LWC V2.10 B1702,2013-04-24 03:56:00,